This is the latest recevied weather packets stored in our database for station/object KFLP. If no packets are shown the sender has not sent any weather packets the latest 1 day(s).
| Time | Temp. | Humidity | Pressure | Rain* | Wind** | Luminosity | Snow |
|---|---|---|---|---|---|---|---|
| 1778088814 | 12.78° C | 62% | 1017.9 hPa | - | - | - | - |
| 1778087614 | 12.78° C | 62% | 1017.9 hPa | - | - | - | - |
| 1778082817 | 10.56° C | 76% | 1017.6 hPa | - | - | - | - |
| 1778080412 | 10.56° C | 76% | 1017.3 hPa | - | - | - | - |
| 1778079813 | 10.56° C | 76% | 1017.3 hPa | - | - | - | - |
| 1778078612 | 10° C | 81% | 1017.6 hPa | - | - | - | - |
| 1778076809 | 10° C | 81% | 1017.6 hPa | - | - | - | - |
| 1778075610 | 10° C | 76% | 1017.3 hPa | - | - | - | - |
| 1778073211 | 8.89° C | 87% | 1017.3 hPa | - | - | - | - |
| 1778072612 | 8.89° C | 87% | 1017.3 hPa | - | - | - | - |
| 1778071411 | 7.78° C | 93% | 1015.9 hPa | - | - | - | - |
| 1778069610 | 7.78° C | 93% | 1015.9 hPa | - | - | - | - |
| 1778068411 | 7.78° C | 87% | 1014.9 hPa | - | - | - | - |
| 1778067208 | 7.78° C | 87% | 1014.9 hPa | - | - | - | - |
| 1778066613 | 7.78° C | 87% | 1014.9 hPa | - | - | - | - |
| 1778066012 | 7.78° C | 87% | 1014.9 hPa | - | - | - | - |
| 1778065409 | 7.78° C | 87% | 1014.9 hPa | - | - | - | - |
| 1778064212 | 7.78° C | 87% | 1013.9 hPa | - | - | - | - |
| 1778063012 | 7.78° C | 87% | 1013.9 hPa | - | - | - | - |
| 1778062410 | 7.78° C | 87% | 1013.9 hPa | - | - | - | - |
| 1778059410 | 7.78° C | 87% | 1013.9 hPa | - | - | - | - |
| 1778058810 | 7.78° C | 87% | 1013.9 hPa | - | - | - | - |
| 1778058213 | 7.78° C | 87% | 1013.9 hPa | - | - | - | - |
| 1778057015 | 7.78° C | 87% | 1013.9 hPa | - | - | - | - |
| 1778055809 | 7.78° C | 93% | 1013.5 hPa | - | - | - | - |
* Rain since midnight (hover to see other rain measurements)
** Current wind speed in m/s (hover to see current wind gust speed)